Regional Weather Roundup
Issued by NWS

Home | Current Version | Previous Version | Graphics & Text | Print | Product List | Glossary On
Versions: 1 2 3 4 5 6 7 8 9 10 11 12 13 14 15 16 17 18 19 20 21 22 23 24 25 26 27 28 29 30 31 32 33 34 35 36 37 38 39 40 41 42 43 44 45 46 47 48 49 50
000
ASUS45 KABQ 300610
RWRNM
NEW MEXICO REGIONAL WEATHER ROUNDUP
NATIONAL WEATHER SERVICE ALBUQUERQUE NM
1200 AM MDT TUE JUN 30 2015

NOTE: "FAIR" MEANS FEW OR NO CLOUDS BELOW 12,000 FEET AGL WITH NO
       SIGNIFICANT WEATHER OR OBSTRUCTIONS TO VISION.

      THIS PRODUCT IS RELEASED AS TWO VERSIONS.  ONE VERSION NEAR
      THE TOP OF THE HOUR CONTAINING PRELIMINARY DATA FROM ALBUQUERQUE
      AND OTHER STATIONS.  A FINAL VERSION WITH ADDITIONAL DATA IS
      ISSUED ABOUT 10 MINUTES AFTER THE HOUR.

NMZ501-503-504-510>518-300700-
NORTHWEST PLATEAU/NORTHCENTRAL MOUNTAINS

CITY           SKY/WX    TMP DP  RH WIND       PRES   REMARKS
FARMINGTON     CLEAR     74  45  35 E8        30.16R
6HR MIN TEMP:  74; 6HR MAX TEMP:  89;

LOS ALAMOS     CLEAR     66  47  49 SW12      30.37S
SANTA FE       PTCLDY    67  48  50 S6        30.31R
6HR MIN TEMP:  67; 6HR MAX TEMP:  81; 6HR PCP: TRACE;

TAOS           PTCLDY    63  43  48 SE10      30.37S
ANGEL FIRE     MOCLDY    49  47  94 CALM      30.51R

$$
NMZ402-403-502-505>509-300700-
WESTCENTRAL MOUNTAINS/SOUTHWEST MOUNTAINS

CITY           SKY/WX    TMP DP  RH WIND       PRES   REMARKS
GALLUP         MOCLDY    68  48  48 S5        30.27S
6HR MIN TEMP:  68; 6HR MAX TEMP:  90;

GRANTS         PTCLDY    73  46  38 SE13      30.29S
SILVER CITY      N/A     75  46  35 NE12      30.20R

$$
NMZ407-409-411-412-300700-
SOUTHERN DESERTS

CITY           SKY/WX    TMP DP  RH WIND       PRES   REMARKS
LORDSBURG      FAIR      77  46  33 W6        30.06S
DEMING         TSTM      76  55  48 E23G38    30.12R
6HR MIN TEMP:  82; 6HR MAX TEMP:  96; 6HR PCP: TRACE;

LAS CRUCES     RAIN      81  52  35 E14G23    30.16R
HOLLOMAN AFB   CLOUDY    80  49  34 SW7       30.09S
ALAMOGORDO     CLOUDY    77  50  38 W5        30.11S
T OR C         CLOUDY    81  50  33 SE12      30.15R
6HR MIN TEMP:  81; 6HR MAX TEMP:  95; 6HR PCP: TRACE;


$$
NMZ519>523-300700-
CENTRAL VALLEYS/CENTRAL HIGHLANDS

CITY           SKY/WX    TMP DP  RH WIND       PRES   REMARKS
ALBUQUERQUE    MOCLDY    75  48  38 E20       30.22R
6HR MIN TEMP:  75; 6HR MAX TEMP:  90; 6HR PCP: TRACE;

DOUBLE EAGLE   PTCLDY    73  47  40 SE14G21   30.27S
MORIARTY ARPT    N/A     63  50  61 SE5       30.33F
6HR MIN TEMP:  63; 6HR MAX TEMP:  82;

CLINES CORNERS CLOUDY    61  50  67 E7        30.36S
6HR MIN TEMP:  60; 6HR MAX TEMP:  72;

BELEN          FAIR      77  43  29 SE5       30.20R
6HR MIN TEMP:  77; 6HR MAX TEMP:  92;

SOCORRO        FAIR      77  47  35 CALM      30.19S
6HR MIN TEMP:  77; 6HR MAX TEMP:  92;


$$
NMZ524>526-539-540-300700-
SOUTHCENTRAL MOUNTAINS

CITY           SKY/WX    TMP DP  RH WIND       PRES   REMARKS
RUIDOSO        MOCLDY    59  54  82 MISG      30.37S

$$
NMZ527>531-300700-
NORTHEAST HIGHLANDS/NORTHEAST PLAINS

CITY           SKY/WX    TMP DP  RH WIND       PRES   REMARKS
LAS VEGAS      MOCLDY    58  53  84 N5        30.38S
6HR MIN TEMP:  57; 6HR MAX TEMP:  68;

RATON          CLEAR     58  53  84 N7        30.34S
6HR MIN TEMP:  58; 6HR MAX TEMP:  77;

CLAYTON        CLEAR     65  53  65 W8        30.23S
6HR MIN TEMP:  64; 6HR MAX TEMP:  80;


$$
NMZ532>537-300700-
EASTCENTRAL PLAINS

CITY           SKY/WX    TMP DP  RH WIND       PRES   REMARKS
TUCUMCARI      CLEAR     67  54  63 NE8       30.18R
6HR MIN TEMP:  67; 6HR MAX TEMP:  84; 6HR PCP: TRACE;

CANNON AFB     CLEAR     69  57  65 W3        30.20R
6HR MIN TEMP:  68; 6HR MAX TEMP:  86;

CLOVIS AIRPORT CLEAR     64  57  77 N3          N/A

$$
NMZ028-029-538-300700-
SOUTHEAST PLAINS

CITY           SKY/WX    TMP DP  RH WIND       PRES   REMARKS
ROSWELL        CLEAR     71  63  75 W5        30.15R
6HR MIN TEMP:  70; 6HR MAX TEMP:  90; 6HR PCP: TRACE;

ARTESIA        PTCLDY    72  63  73 W5        30.14F
CARLSBAD       MOCLDY    72  64  76 W5        30.09F
6HR MIN TEMP:  72; 6HR MAX TEMP:  96; 6HR PCP:  0.19;

HOBBS          PTCLDY    66  66 100 NW5       30.13R


$$



USA.gov is the U.S. government's official web portal to all federal, state and local government web resources and services.